STARLINK-35170 (65532 NORAD) Tracking and Keplerian Element Data

This shows tracking and keplerian element data for the satellite.

Feedback or suggestion? Click here.




ElementValue
Catalog65532
NameSTARLINK-35170
Epoch Orbit1716
Epoch Day354.13463631
Epoch Year2025
RAAN61.4337
Inclination97.6055
Eccentricity0.0001042
Argument of Perigee103.9602
Mean Anonmoly256.1741
Mean Motion15.05649293
Decay Rate1.521E-05
L11 65532U 25200N 25354.13463631 .00001521 00000+0 10959-3 0 9991
L22 65532 97.6055 61.4337 0001042 103.9602 256.1741 15.05649293 17162



Live tracking and technical data element details for STARLINK-35170 (NORAD 65532). STARLINK-35170 can be tracked NOW for your location showing map with azimuth and elevation plus other details from your city location.







IsCatalogInMostPopularTable: catalog: 65532, numindb: 9
Update: records affected: 1



GetName: 65532 STARLINK-35170

Hit Count: updated at: Wed, 15 Apr 2026 01:47:38 GMT